[[{"header":{"parameterUnit":"m.s-1","parameterCategory":1,"la1":30.2991,"la2":30.254,"lo1":-89.0895,"lo2":-89.0444,"dy":0.0017,"dx":0.0017,"nx":28,"ny":28,"refTime":"2025-02-08T03:00:00:Z","depth":0,"parameterNumber":2,"parameterNumberName":"U-component_of_WINDS"},"data":[0,0,0,0,0,0,0,0,0,0,0,0,0,0,0,0,0,0,0,0,0,0,0,0,0,0,0,0,0,0,0,0,0,0,0,0,0,0,0,0,0,0,0,0,0,0,0,0,0,0,0,0,0,0,0,0,0,0,-0.767,-0.767,0,-0.7675,-0.7675,-0.7675,-0.767,-0.767,-0.7669,-0.7669,-0.7677,-0.7677,-0.7677,0,0,0,0,0,0,0,0,0,0,0,0,0,-0.7658,-0.7658,-0.767,-0.767,-0.767,-0.7675,-0.7675,-0.7675,-0.767,-0.767,-0.7669,-0.7669,-0.7677,-0.7677,-0.7678,0,0,0,0,0,0,0,0,0,0,0,0,0,-0.7663,-0.7658,-0.767,-0.7668,-0.7668,-0.7675,-0.7675,-0.7675,-0.767,-0.767,-0.7669,-0.7669,-0.7676,-0.7677,-0.7678,-0.7688,0,0,-0.7679,-0.768,0,0,0,0,0,0,0,0,-0.7663,-0.7664,-0.7668,-0.7668,-0.7668,-0.7671,-0.7674,-0.768,-0.767,-0.7669,-0.7669,-0.7669,-0.7675,-0.7676,-0.7678,-0.7688,-0.7689,-0.7679,-0.768,-0.768,-0.768,0,0,0,0,0,0,0,-0.7662,-0.7663,-0.7672,-0.7668,-0.7668,-0.7668,-0.7668,-0.7675,-0.7674,-0.7669,-0.7669,-0.7669,-0.7675,-0.7677,-0.7678,-0.7689,-0.7679,-0.768,-0.768,-0.7681,-0.771,-0.7711,0,0,0,0,0,0,-0.7662,-0.7663,-0.7672,-0.7672,-0.7664,-0.7668,-0.7668,-0.7671,-0.7674,-0.7674,-0.767,-0.7669,-0.7676,-0.7677,-0.7678,-0.7692,-0.768,-0.7681,-0.7681,-0.771,-0.771,-0.7711,0,0,0,0,0,0,-0.7662,-0.7663,-0.7672,-0.7667,-0.7669,-0.7669,-0.7671,-0.7671,-0.7673,-0.7674,-0.7674,-0.7672,-0.7676,-0.7677,-0.7686,-0.7692,-0.7681,-0.7682,-0.7709,-0.771,-0.7711,-0.7718,0,0,0,0,0,0,-0.7661,-0.7663,-0.7666,-0.7668,-0.7669,-0.7678,-0.7671,-0.7671,-0.7674,-0.7673,-0.7676,-0.7676,-0.7676,-0.7685,-0.7686,-0.7692,-0.7682,-0.7709,-0.771,-0.771,-0.7717,-0.7719,-0.772,0,0,0,0,0,-0.7661,-0.7668,-0.7666,-0.7667,-0.7672,-0.7678,-0.7679,-0.7678,-0.7674,-0.7678,-0.7679,-0.7676,-0.7691,-0.7686,-0.7688,-0.7694,-0.7708,-0.7709,-0.771,-0.7716,-0.7718,-0.772,0,0,0,0,0,0,-0.7667,-0.7668,-0.7666,-0.7673,-0.7676,-0.7677,-0.7682,-0.768,-0.7684,-0.7683,-0.7682,-0.7683,-0.7692,-0.7694,-0.7688,-0.7705,-0.7699,-0.7701,-0.7703,-0.7705,-0.7707,-0.7706,-0.7683,0,0,0,0,0,-0.7669,-0.7673,-0.7674,-0.768,-0.7682,-0.7682,-0.7684,-0.7683,-0.7686,-0.7687,-0.7689,-0.7693,-0.7698,-0.7702,-0.7707,-0.7718,-0.7719,-0.7723,-0.7724,-0.7725,-0.7727,-0.7734,-0.7736,-0.7714,-0.7714,-0.7714,0,0,-0.7673,-0.7674,-0.7677,-0.7681,-0.7683,-0.7688,-0.7682,-0.7688,-0.7692,-0.7688,-0.7696,-0.7698,-0.7702,-0.7712,-0.7717,-0.7714,-0.7733,-0.7727,-0.7728,-0.7728,-0.7735,-0.7737,-0.7739,-0.7714,-0.7714,-0.7714,0,0,-0.7684,-0.7685,-0.7691,-0.7693,-0.7696,-0.7696,-0.7698,-0.77,-0.7701,-0.7709,-0.7707,-0.7712,-0.7721,-0.7725,-0.7728,-0.7742,-0.774,-0.7744,-0.7751,-0.7758,-0.776,-0.7762,-0.7768,-0.777,-0.7745,-0.7745,-0.7745,0,-0.7689,-0.7696,-0.7694,-0.77,-0.7703,-0.7699,-0.7706,-0.7709,-0.7714,-0.7716,-0.7713,-0.7725,-0.7728,-0.7739,-0.7743,-0.7745,-0.7748,-0.7743,-0.776,-0.7761,-0.7763,-0.7769,-0.7771,-0.7746,-0.7745,-0.7745,-0.7745,0,-0.7703,-0.7708,-0.7712,-0.7717,-0.772,-0.7726,-0.7727,-0.7731,-0.773,-0.7731,-0.774,-0.7744,-0.775,-0.7753,-0.7752,-0.7765,-0.7763,-0.776,-0.7754,-0.7766,-0.7771,-0.7773,-0.7746,-0.7746,-0.7746,-0.7746,0,0,-0.7716,-0.772,-0.7722,-0.7725,-0.7728,-0.7733,-0.774,-0.7746,-0.7749,-0.7753,-0.776,-0.7769,-0.7767,-0.777,-0.777,-0.7776,-0.7789,-0.7773,-0.7773,-0.7776,-0.7804,-0.7807,-0.7809,-0.7788,-0.7788,-0.7788,-0.7804,0,-0.7727,-0.7738,-0.7738,-0.7749,-0.7754,-0.7752,-0.7758,-0.7762,-0.7764,-0.777,-0.7772,-0.7778,-0.7774,-0.7777,-0.7783,-0.7786,-0.7794,-0.7785,-0.7795,-0.7795,-0.7794,-0.7812,-0.7814,-0.7828,-0.7806,-0.7806,-0.7807,0,-0.7741,-0.7746,-0.7757,-0.7761,-0.7763,-0.7769,-0.7775,-0.778,-0.7785,-0.7786,-0.7791,-0.779,-0.7799,-0.7793,-0.7806,-0.78,-0.7804,-0.7807,-0.7807,-0.7808,-0.7801,-0.7813,-0.7833,-0.7835,-0.781,-0.781,-0.7809,0,-0.7751,-0.7759,-0.7768,-0.777,-0.7775,-0.7779,-0.7782,-0.7786,-0.779,-0.7796,-0.7799,-0.7806,-0.781,-0.7816,-0.7818,-0.7814,-0.7832,-0.7826,-0.7834,-0.7834,-0.7837,-0.7837,-0.7858,-0.784,-0.784,-0.784,-0.784,0,-0.7763,-0.7771,-0.7772,-0.7777,-0.7786,-0.7786,-0.7795,-0.7797,-0.7802,-0.7808,-0.7807,-0.7814,-0.7816,-0.7823,-0.7825,-0.7836,-0.7838,-0.784,-0.7841,-0.784,-0.784,-0.7843,-0.7842,-0.784,-0.784,-0.784,-0.784,0,-0.7775,-0.7776,-0.7785,-0.7789,-0.7791,-0.7797,-0.7801,-0.7807,-0.7809,-0.7818,-0.782,-0.7823,-0.7832,-0.7835,-0.7845,-0.7847,-0.786,-0.786,-0.7858,-0.7858,-0.7866,-0.7866,-0.789,-0.7894,-0.7873,-0.7873,-0.7873,0,-0.7783,-0.7789,-0.7794,-0.7798,-0.78,-0.7807,-0.7811,-0.7812,-0.7817,-0.7824,-0.7829,-0.7838,-0.7844,-0.7859,-0.7863,-0.7872,-0.7872,-0.788,-0.7873,-0.7873,-0.7873,-0.7873,-0.7874,-0.7881,-0.7881,-0.7882,-0.7882,0,-0.7797,-0.7798,-0.7804,-0.781,-0.7815,-0.782,-0.7825,-0.7829,-0.7831,-0.7837,-0.7845,-0.7851,-0.7862,-0.7871,-0.788,-0.7884,-0.7884,-0.7884,-0.7886,-0.7886,-0.7885,-0.7887,-0.7862,-0.7883,-0.7883,-0.7883,-0.7883,-0.7883,-0.7808,-0.7813,-0.7818,-0.7825,-0.7829,-0.7834,-0.784,-0.7843,-0.785,-0.7858,-0.7859,-0.7869,-0.7876,-0.7888,-0.7892,-0.7901,-0.7899,-0.7902,-0.7903,-0.7904,-0.7905,-0.7884,-0.7903,-0.7903,-0.7903,-0.7903,-0.7903,0,-0.7823,-0.7826,-0.7832,-0.7839,-0.7845,-0.7844,-0.785,-0.7855,-0.7864,-0.7869,-0.7876,-0.7887,-0.7897,-0.7902,-0.7912,-0.7918,-0.7918,-0.792,-0.792,-0.7921,-0.7906,-0.7903,-0.792,-0.792,-0.792,-0.792,-0.792,-0.792,-0.7831,-0.7841,-0.7842,-0.7854,-0.7857,-0.7866,-0.787,-0.7875,-0.788,-0.7892,-0.79,-0.7903,-0.7909,-0.792,-0.7929,-0.793,-0.7934,-0.7937,-0.7939,-0.7924,-0.7922,-0.7921,-0.7918,-0.7938,-0.7938,-0.7953,-0.7954,-0.7954]},{"header":{"parameterUnit":"m.s-1","parameterCategory":1,"la1":30.2991,"la2":30.254,"lo1":-89.0895,"lo2":-89.0444,"dy":0.0017,"dx":0.0017,"nx":28,"ny":28,"refTime":"2025-02-08T03:00:00:Z","depth":0,"parameterNumber":3,"parameterNumberName":"V-component_of_WINDS"},"data":[0,0,0,0,0,0,0,0,0,0,0,0,0,0,0,0,0,0,0,0,0,0,0,0,0,0,0,0,0,0,0,0,0,0,0,0,0,0,0,0,0,0,0,0,0,0,0,0,0,0,0,0,0,0,0,0,0,0,2.4465,2.4465,0,2.4505,2.4505,2.4506,2.4519,2.4519,2.4519,2.4519,2.456,2.4561,2.4562,0,0,0,0,0,0,0,0,0,0,0,0,0,2.44,2.4401,2.4464,2.4465,2.4465,2.4505,2.4505,2.4506,2.4519,2.4519,2.4519,2.4519,2.4559,2.4561,2.4562,0,0,0,0,0,0,0,0,0,0,0,0,0,2.4433,2.4402,2.4464,2.4477,2.4478,2.4505,2.4505,2.4506,2.4519,2.4519,2.4519,2.4519,2.4559,2.4561,2.4563,2.4579,0,0,2.4568,2.4569,0,0,0,0,0,0,0,0,2.4431,2.4435,2.4475,2.4476,2.4478,2.4507,2.4498,2.453,2.4519,2.4504,2.4519,2.4519,2.4542,2.4546,2.4554,2.4581,2.4583,2.4568,2.4569,2.457,2.4571,0,0,0,0,0,0,0,2.4429,2.4434,2.448,2.4475,2.4477,2.4481,2.4485,2.4504,2.4524,2.4505,2.4506,2.4511,2.4543,2.4552,2.4555,2.4583,2.4568,2.457,2.4571,2.4572,2.4628,2.4628,0,0,0,0,0,0,2.4424,2.4432,2.4479,2.4482,2.4453,2.4482,2.4487,2.4498,2.4524,2.4528,2.4511,2.4511,2.4549,2.4552,2.4556,2.4578,2.457,2.4572,2.4573,2.4627,2.4628,2.4628,0,0,0,0,0,0,2.4423,2.4428,2.4478,2.4457,2.4464,2.4484,2.4495,2.4499,2.4507,2.4528,2.4532,2.4516,2.4549,2.4554,2.4574,2.458,2.4573,2.4575,2.4627,2.4627,2.4628,2.4622,0,0,0,0,0,0,2.4421,2.4428,2.4434,2.4457,2.4465,2.4494,2.4496,2.45,2.4511,2.4511,2.4534,2.4537,2.4549,2.4571,2.4575,2.4582,2.4576,2.4626,2.4627,2.4628,2.4621,2.4622,2.4622,0,0,0,0,0,2.4419,2.443,2.4434,2.444,2.4473,2.4494,2.4499,2.4512,2.4511,2.4518,2.4531,2.4537,2.4578,2.4573,2.4578,2.4585,2.4626,2.4627,2.4628,2.4621,2.4622,2.4622,0,0,0,0,0,0,2.4407,2.4434,2.4438,2.4458,2.4474,2.4497,2.4505,2.4512,2.4528,2.4528,2.4543,2.4548,2.4568,2.4578,2.4572,2.4603,2.4602,2.4604,2.4596,2.4596,2.4597,2.4594,2.4578,0,0,0,0,0,2.4407,2.4422,2.4444,2.4459,2.4467,2.4485,2.4495,2.4503,2.4521,2.4527,2.4543,2.4559,2.4576,2.4587,2.4603,2.4623,2.4629,2.4631,2.4631,2.4632,2.4633,2.4646,2.4647,2.4631,2.4631,2.4631,0,0,2.4407,2.4423,2.4431,2.4458,2.4471,2.4487,2.449,2.4507,2.4519,2.453,2.455,2.4562,2.4581,2.4602,2.4611,2.4611,2.4639,2.4633,2.4633,2.4634,2.4647,2.4648,2.465,2.4631,2.4631,2.4631,0,0,2.4414,2.4428,2.4442,2.4456,2.4476,2.4488,2.4492,2.4514,2.4522,2.4543,2.4552,2.4567,2.4595,2.4609,2.462,2.4634,2.464,2.4639,2.4641,2.4653,2.4655,2.4656,2.4662,2.4664,2.464,2.464,2.464,0,2.4411,2.4435,2.4449,2.4465,2.4477,2.4488,2.4503,2.4516,2.4541,2.4549,2.4548,2.4585,2.4599,2.4623,2.4627,2.4635,2.464,2.4636,2.4653,2.4655,2.4656,2.4662,2.4664,2.464,2.464,2.464,2.464,0,2.4431,2.4448,2.4457,2.4481,2.4494,2.4509,2.4526,2.4537,2.4545,2.4557,2.4579,2.4596,2.4617,2.4623,2.463,2.4649,2.4648,2.465,2.465,2.4657,2.4663,2.4666,2.464,2.464,2.464,2.464,0,0,2.4432,2.4464,2.4468,2.4479,2.4503,2.4517,2.4533,2.4554,2.4564,2.4581,2.4596,2.462,2.4623,2.4635,2.4644,2.4655,2.4666,2.4656,2.4657,2.4658,2.4689,2.4687,2.469,2.467,2.4671,2.4671,2.4687,0,2.4443,2.4473,2.4487,2.4511,2.4527,2.4538,2.4553,2.457,2.4582,2.4597,2.461,2.4628,2.463,2.4637,2.4648,2.4662,2.4673,2.4661,2.4685,2.4685,2.468,2.4693,2.4691,2.4705,2.469,2.469,2.469,0,2.446,2.4478,2.4504,2.4527,2.4534,2.4547,2.4568,2.4583,2.4602,2.461,2.4625,2.4634,2.4652,2.465,2.4676,2.4668,2.4679,2.4687,2.4688,2.4691,2.4689,2.4697,2.471,2.4713,2.4694,2.4694,2.4693,0,2.4459,2.4489,2.4509,2.4519,2.4546,2.4555,2.4567,2.4586,2.4598,2.4617,2.4625,2.4645,2.4656,2.4671,2.4686,2.4683,2.4711,2.471,2.4719,2.4719,2.4725,2.4724,2.4741,2.473,2.473,2.473,2.473,0,2.4471,2.4486,2.451,2.4522,2.454,2.4556,2.4573,2.4586,2.4603,2.4619,2.4629,2.4644,2.4662,2.4678,2.469,2.4711,2.4715,2.4723,2.4726,2.4722,2.4721,2.4729,2.4729,2.473,2.473,2.473,2.473,0,2.4473,2.4489,2.4511,2.4536,2.4542,2.4555,2.4576,2.4589,2.4602,2.4621,2.4626,2.4647,2.4667,2.4683,2.4709,2.4717,2.4739,2.4742,2.4733,2.4734,2.4743,2.4742,2.4766,2.477,2.4756,2.4756,2.4756,0,2.4479,2.4492,2.4518,2.4529,2.4541,2.4559,2.4571,2.4587,2.46,2.4624,2.4634,2.4655,2.4673,2.4705,2.4723,2.4743,2.4747,2.4754,2.475,2.4747,2.4748,2.4748,2.475,2.4754,2.4755,2.4755,2.4755,0,2.4489,2.4497,2.4515,2.4536,2.4551,2.4568,2.4585,2.4594,2.4614,2.4628,2.4649,2.4663,2.469,2.4712,2.4734,2.4747,2.4754,2.4756,2.4759,2.4756,2.475,2.4755,2.4735,2.4755,2.4755,2.4755,2.4755,2.4755,2.4494,2.4506,2.4527,2.4547,2.4562,2.4579,2.4592,2.4607,2.4625,2.4649,2.4657,2.468,2.47,2.4731,2.4744,2.4762,2.4762,2.4767,2.4768,2.4769,2.477,2.4747,2.4766,2.4766,2.4766,2.4766,2.4766,0,2.4506,2.452,2.4538,2.4563,2.4579,2.4585,2.4605,2.4618,2.4637,2.4656,2.4673,2.4699,2.472,2.4739,2.4761,2.4772,2.4776,2.4777,2.4777,2.478,2.4767,2.4763,2.4773,2.4773,2.4773,2.4773,2.4773,2.4773,2.4513,2.4535,2.4545,2.4574,2.4589,2.4611,2.4622,2.4637,2.4652,2.468,2.4698,2.471,2.473,2.4753,2.4773,2.4779,2.4787,2.4787,2.4793,2.4781,2.478,2.478,2.4775,2.4788,2.4788,2.4804,2.4804,2.4805]}]]